Date String (YYYY-MM-DD hh:mm:ss) UTC,Instrument flags,Ambient pressure (hPa),Sample flow (lpm),Bypass flow (lpm),Sample temperature (°C),Ambient temperature (°C),ASC tube jacket temperature (°C),LED temperature (°C),Box temperature (°C),Sample RH (%),Span deviation,Mass concentration (μg/m³),Mass concentration (μg/m³),Mass concentration (μg/m³)
DateTimeUTC,F1_M11,P_M11,Q1_M11,Q2_M11,T1_M11,T2_M11,T3_M11,T4_M11,T5_M11,U1_M11,ZSPAN_M11,X2_M11,X0_M11,X1_M11
2021-10-19 23:00:00,,0824.1,5.01,0.00,29.8,29.1,00.0,38.9,31.5,13.6,0000.0,0002.03,0014.11,0000.56
2021-10-19 23:01:00,,0824.1,5.00,0.00,29.8,29.0,00.0,38.9,31.5,13.7,0000.0,0002.11,0013.10,0000.57
2021-10-19 23:02:00,,0824.1,4.99,0.00,29.8,29.1,00.0,38.9,31.5,13.7,0000.0,0002.15,0013.72,0000.57
2021-10-19 23:03:00,,0824.1,4.99,0.00,29.8,29.1,00.0,38.9,31.5,13.7,0000.0,0002.18,0014.05,0000.58
2021-10-19 23:04:00,,0824.1,4.99,0.00,29.8,29.1,00.0,38.9,31.6,13.7,0000.0,0002.24,0013.90,0000.58
2021-10-19 23:05:00,,0824.2,5.00,0.00,29.8,29.1,00.0,38.9,31.6,13.6,0000.0,0002.23,0014.81,0000.58
2021-10-19 23:06:00,,0824.2,5.01,0.00,29.8,29.1,00.0,38.9,31.6,13.7,0000.0,0002.19,0014.89,0000.59
2021-10-19 23:07:00,,0824.2,5.00,0.00,29.8,29.1,00.0,38.9,31.6,13.6,0000.0,0002.18,0015.41,0000.59
2021-10-19 23:08:00,,0824.3,4.99,0.00,29.8,29.2,00.0,38.9,31.6,13.7,0000.0,0002.29,0016.41,0000.59
2021-10-19 23:09:00,,0824.5,5.01,0.00,29.8,29.2,00.0,38.9,31.6,13.7,0000.0,0002.32,0017.33,0000.60
2021-10-19 23:10:00,,0824.3,4.99,0.00,29.8,29.2,00.0,38.9,31.6,13.7,0000.0,0002.34,0017.14,0000.60
2021-10-19 23:11:00,,0824.3,5.01,0.00,29.8,29.2,00.0,38.9,31.6,13.7,0000.0,0002.42,0016.03,0000.60
2021-10-19 23:12:00,,0824.4,5.00,0.00,29.8,29.1,00.0,38.9,31.6,13.8,0000.0,0002.46,0016.07,0000.59
2021-10-19 23:13:00,,0824.3,5.00,0.00,29.8,29.1,00.0,38.9,31.6,13.8,0000.0,0002.49,0015.70,0000.60
2021-10-19 23:14:00,,0824.3,5.00,0.00,29.8,29.1,00.0,38.9,31.6,13.8,0000.0,0002.54,0016.18,0000.62
2021-10-19 23:15:00,,0824.3,5.00,0.00,29.8,29.0,00.0,38.9,31.6,13.8,0000.0,0002.51,0015.75,0000.63
2021-10-19 23:16:00,,0824.3,5.00,0.00,29.8,28.9,00.0,38.9,31.5,13.8,0000.0,0002.62,0015.31,0000.65
2021-10-19 23:17:00,,0824.3,4.99,0.00,29.8,28.9,00.0,38.9,31.5,13.8,0000.0,0002.66,0014.81,0000.66
2021-10-19 23:18:00,,0824.3,5.00,0.00,29.8,28.9,00.0,38.9,31.5,13.8,0000.0,0002.66,0015.06,0000.67
2021-10-19 23:19:00,,0824.3,5.01,0.00,29.7,28.8,00.0,38.9,31.5,13.8,0000.0,0002.64,0014.64,0000.67
2021-10-19 23:20:00,,0824.3,5.00,0.00,29.7,28.8,00.0,38.9,31.4,13.8,0000.0,0002.71,0013.92,0000.66
2021-10-19 23:21:00,,0824.4,5.01,0.00,29.7,28.9,00.0,38.9,31.4,13.8,0000.0,0002.65,0014.37,0000.66
2021-10-19 23:22:00,,0824.4,4.99,0.00,29.7,28.8,00.0,38.9,31.4,13.8,0000.0,0002.62,0014.87,0000.65
2021-10-19 23:23:00,,0824.4,5.01,0.00,29.7,28.7,00.0,38.9,31.4,13.8,0000.0,0002.58,0014.15,0000.66
2021-10-19 23:24:00,,0824.4,4.98,0.00,29.7,28.8,00.0,38.8,31.3,13.8,0000.0,0002.57,0014.64,0000.66
2021-10-19 23:25:00,,0824.5,5.01,0.00,29.6,28.8,00.0,38.8,31.3,13.8,0000.0,0002.60,0013.99,0000.65
2021-10-19 23:26:00,,0824.5,4.99,0.00,29.6,28.9,00.0,38.8,31.3,13.7,0000.0,0002.56,0013.76,0000.65
2021-10-19 23:27:00,,0824.4,5.00,0.00,29.6,28.9,00.0,38.8,31.3,13.7,0000.0,0002.51,0012.95,0000.64
2021-10-19 23:28:00,,0824.4,4.99,0.00,29.6,28.9,00.0,38.8,31.3,13.8,0000.0,0002.49,0012.21,0000.63
2021-10-19 23:29:00,,0824.4,5.02,0.00,29.6,28.9,00.0,38.8,31.3,13.8,0000.0,0002.51,0011.41,0000.64
2021-10-19 23:30:00,,0824.4,4.99,0.00,29.6,28.9,00.0,38.8,31.3,13.8,0000.0,0002.49,0012.36,0000.64
2021-10-19 23:31:00,,0824.5,5.00,0.00,29.6,28.9,00.0,38.8,31.3,13.8,0000.0,0002.45,0012.23,0000.65
2021-10-19 23:32:00,,0824.7,5.01,0.00,29.6,28.8,00.0,38.8,31.3,13.8,0000.0,0002.51,0012.57,0000.66
2021-10-19 23:33:00,,0824.6,5.00,0.00,29.6,28.8,00.0,38.8,31.2,13.8,0000.0,0002.43,0012.57,0000.66
2021-10-19 23:34:00,,0824.6,5.00,0.00,29.6,28.9,00.0,38.8,31.2,13.8,0000.0,0002.47,0013.61,0000.66
2021-10-19 23:35:00,,0824.5,4.99,0.00,29.6,28.9,00.0,38.8,31.3,13.8,0000.0,0002.48,0015.13,0000.66
2021-10-19 23:36:00,,0824.7,4.99,0.00,29.6,28.9,00.0,38.8,31.3,13.8,0000.0,0002.38,0015.58,0000.66
2021-10-19 23:37:00,,0824.6,5.01,0.00,29.5,28.8,00.0,38.8,31.2,13.9,0000.0,0002.47,0016.59,0000.66
2021-10-19 23:38:00,,0824.7,5.00,0.00,29.5,28.8,00.0,38.7,31.2,13.9,0000.0,0002.46,0017.06,0000.66
2021-10-19 23:39:00,,0824.5,4.99,0.00,29.5,28.8,00.0,38.7,31.2,13.9,0000.0,0002.46,0017.39,0000.66
2021-10-19 23:40:00,,0824.6,4.99,0.00,29.5,28.8,00.0,38.7,31.2,13.9,0000.0,0002.46,0017.25,0000.65
2021-10-19 23:41:00,,0824.7,5.01,0.00,29.5,28.8,00.0,38.7,31.2,13.9,0000.0,0002.47,0015.99,0000.65
2021-10-19 23:42:00,,0824.7,5.00,0.00,29.5,28.7,00.0,38.7,31.2,13.9,0000.0,0002.46,0016.23,0000.64
2021-10-19 23:43:00,,0824.7,5.00,0.00,29.5,28.6,00.0,38.7,31.2,14.0,0000.0,0002.41,0015.46,0000.64
2021-10-19 23:44:00,,0824.8,4.99,0.00,29.5,28.6,00.0,38.7,31.2,14.0,0000.0,0002.48,0015.98,0000.65
2021-10-19 23:45:00,,0825.0,5.00,0.00,29.5,28.6,00.0,38.7,31.1,14.0,0000.0,0002.48,0017.53,0000.65
2021-10-19 23:46:00,,0824.6,5.01,0.00,29.4,28.5,00.0,38.7,31.1,14.0,0000.0,0002.58,0017.14,0000.66
2021-10-19 23:47:00,,0824.6,5.00,0.00,29.4,28.5,00.0,38.7,31.1,14.0,0000.0,0002.63,0016.34,0000.66
2021-10-19 23:48:00,,0824.6,4.99,0.00,29.4,28.5,00.0,38.7,31.1,14.0,0000.0,0002.63,0018.07,0000.67
2021-10-19 23:49:00,,0824.7,4.99,0.00,29.4,28.5,00.0,38.6,31.0,14.0,0000.0,0002.75,0020.04,0000.67
2021-10-19 23:50:00,,0824.6,4.99,0.00,29.4,28.5,00.0,38.6,31.0,14.0,0000.0,0002.88,0020.85,0000.69
2021-10-19 23:51:00,,0824.6,5.00,0.00,29.4,28.4,00.0,38.6,31.0,14.0,0000.0,0002.92,0021.27,0000.72
2021-10-19 23:52:00,,0824.6,5.01,0.00,29.3,28.4,00.0,38.6,31.0,14.0,0000.0,0003.02,0022.10,0000.75
2021-10-19 23:53:00,,0824.6,5.00,0.00,29.3,28.3,00.0,38.6,31.0,14.1,0000.0,0003.12,0022.29,0000.77
2021-10-19 23:54:00,,0824.6,5.00,0.00,29.3,28.2,00.0,38.6,31.0,14.1,0000.0,0003.23,0023.76,0000.80
2021-10-19 23:55:00,,0824.7,5.00,0.00,29.3,28.2,00.0,38.5,31.0,14.1,0000.0,0003.27,0024.12,0000.82
2021-10-19 23:56:00,,0824.7,5.00,0.00,29.3,28.2,00.0,38.5,30.9,14.1,0000.0,0003.28,0022.64,0000.85
2021-10-19 23:57:00,,0824.8,4.99,0.00,29.2,28.1,00.0,38.5,30.9,14.2,0000.0,0003.27,0020.48,0000.87
2021-10-19 23:58:00,,0824.8,5.00,0.00,29.2,28.1,00.0,38.5,30.9,14.2,0000.0,0003.27,0020.19,0000.90
2021-10-19 23:59:00,,0824.9,5.00,0.00,29.2,28.1,00.0,38.5,30.9,14.2,0000.0,0003.38,0019.94,0000.93
